Latest Weather Observations for Gympie

IDQ60901

Issued at 5:55 pm EST Saturday 19 April 2014 (issued every 10 minutes, with the page automatically refreshed every 10 minutes)

About weather observations | Map of Brisbane area stations | Latest observations for Brisbane area | Other Formats
Station Details ID: 040093 Name: GYMPIE Lat: -26.18 Lon: 152.64 Height: 64.5 m
Data from the previous 72 hours. | See also: Recent months at Gympie
Date/Time
EST
Tmp

°C
App
Tmp
°C
Dew
Point
°C
Rel
Hum
%
Delta-T

°C
Wind Press
QNH
hPa
Press
MSL
hPa
Rain
since
9 am
mm
Dir
 
Spd
km/h
Gust
km/h
Spd
kts
Gust
kts
19/05:30pm 23.8 23.5 11.5 46 6.9 N 4 4 2 2 1014.0 - 0.0
19/05:00pm 26.3 25.2 8.3 32 9.7 SE 4 4 2 2 1013.8 1013.6 0.0
19/04:30pm 26.8 26.4 8.3 31 10.0 CALM 0 0 0 0 1013.6 - 0.0
19/04:00pm 27.3 26.2 6.7 27 10.9 ESE 2 6 1 3 1013.4 1013.2 0.0
19/03:30pm 27.0 26.2 9.8 34 9.6 SSE 4 7 2 4 1013.4 - 0.0
19/03:00pm 27.2 25.8 7.1 28 10.7 ESE 4 9 2 5 1013.4 1013.2 0.0
19/02:30pm 27.3 26.3 8.7 31 10.2 SSE 4 7 2 4 1013.5 - 0.0
19/02:00pm 26.9 25.4 6.9 28 10.6 S 4 9 2 5 1013.6 1013.4 0.0
19/01:30pm 26.8 24.9 6.8 28 10.6 SW 6 11 3 6 1014.0 - 0.0
19/01:00pm 26.9 25.9 10.2 35 9.3 SSW 6 15 3 8 1014.3 1014.1 0.0
19/12:30pm 26.5 24.1 8.5 32 9.8 S 11 19 6 10 1014.7 - 0.0
19/12:00pm 26.2 24.9 9.1 34 9.4 S 6 9 3 5 1015.3 1015.1 0.0
19/11:30am 26.7 26.3 11.2 38 8.8 SE 4 9 2 5 1015.8 - 0.0
19/11:00am 25.3 25.6 12.2 44 7.5 S 2 7 1 4 1016.5 1016.3 0.0
19/10:30am 24.9 25.6 12.2 45 7.3 NNE 0 0 0 0 1016.9 - 0.0
19/10:00am 23.0 23.7 13.5 55 5.5 SW 2 4 1 2 1017.3 1017.1 0.0
19/09:30am 20.8 22.6 15.6 72 3.1 CALM 0 0 0 0 1017.5 - 0.0
19/09:00am 18.6 20.6 16.0 85 1.5 CALM 0 2 0 1 1017.8 1017.6 0.0
19/08:30am 16.4 18.0 14.8 90 0.9 CALM 0 0 0 0 1017.9 - 0.0
19/08:00am 14.6 16.0 14.3 98 0.2 CALM 0 0 0 0 1017.9 1017.7 0.0
19/07:30am 13.4 14.4 13.2 99 0.1 CALM 0 0 0 0 1017.7 - 0.0
19/07:00am 12.7 13.5 12.5 99 0.1 CALM 0 0 0 0 1017.5 1017.3 0.0
19/06:30am 12.6 13.3 12.3 98 0.2 CALM 0 0 0 0 1017.2 - 0.0
19/06:00am 12.8 13.6 12.5 98 0.2 CALM 0 0 0 0 1017.1 1016.9 0.0
19/05:30am 12.9 13.7 12.6 98 0.2 CALM 0 0 0 0 1016.9 - 0.0
19/05:00am 13.0 13.8 12.7 98 0.2 CALM 0 0 0 0 1016.6 1016.4 0.0
19/04:30am 12.9 13.7 12.6 98 0.2 CALM 0 0 0 0 1016.6 - 0.0
19/04:00am 13.2 14.0 12.6 96 0.3 CALM 0 0 0 0 1016.4 1016.2 0.0
19/03:30am 13.8 14.8 13.2 96 0.3 CALM 0 0 0 0 1016.2 - 0.0
19/03:00am 13.9 14.9 13.3 96 0.3 CALM 0 0 0 0 1016.3 1016.1 0.0
19/02:30am 14.4 15.6 13.8 96 0.3 WSW 0 0 0 0 1016.3 - 0.0
19/02:00am 14.9 16.3 14.4 97 0.3 CALM 0 0 0 0 1016.3 1016.1 0.0
19/01:30am 15.0 16.4 14.4 96 0.3 CALM 0 0 0 0 1016.4 - 0.0
19/01:00am 15.3 16.8 14.7 96 0.3 CALM 0 0 0 0 1016.6 1016.4 0.0
19/12:30am 15.9 17.6 15.3 96 0.3 CALM 0 0 0 0 1016.7 - 0.0
19/12:00am 15.8 17.4 15.0 95 0.5 S 0 0 0 0 1016.8 1016.6 0.0
 
Date/Time
EST
Tmp

°C
App
Tmp
°C
Dew
Point
°C
Rel
Hum
%
Delta-T

°C
Wind Press
QNH
hPa
Press
MSL
hPa
Rain
since
9 am
mm
Dir
 
Spd
km/h
Gust
km/h
Spd
kts
Gust
kts
18/11:30pm 15.9 17.5 14.9 94 0.6 CALM 0 0 0 0 1016.9 - 0.0
18/11:00pm 16.3 18.0 15.2 93 0.6 CALM 0 0 0 0 1016.9 1016.7 0.0
18/10:30pm 16.9 18.8 15.8 93 0.6 CALM 0 0 0 0 1016.9 - 0.0
18/10:00pm 17.1 18.5 15.4 90 1.0 WSW 2 2 1 1 1016.9 1016.7 0.0
18/09:30pm 17.6 19.5 15.8 89 1.1 CALM 0 0 0 0 1016.8 - 0.0
18/09:00pm 18.2 20.2 16.0 87 1.3 CALM 0 0 0 0 1016.6 1016.4 0.0
18/08:30pm 19.0 21.2 16.6 86 1.4 CALM 0 0 0 0 1016.5 - 0.0
18/08:00pm 20.0 22.3 16.8 82 1.9 CALM 0 0 0 0 1016.3 1016.1 0.0
18/07:30pm 20.9 23.3 16.9 78 2.4 NE 0 0 0 0 1016.0 - 0.0
18/07:00pm 21.7 23.8 17.3 76 2.7 ENE 2 6 1 3 1015.6 1015.4 0.0
18/06:30pm 22.1 23.3 16.8 72 3.2 E 6 7 3 4 1015.1 - 0.0
18/06:00pm 22.9 24.0 14.5 59 5.0 SE 2 4 1 2 1014.7 1014.5 0.0
18/05:30pm 24.8 25.1 11.0 42 7.8 CALM 0 0 0 0 1014.1 - 0.0
18/05:00pm 26.4 25.6 9.7 35 9.2 SE 4 6 2 3 1013.7 1013.5 0.0
18/04:30pm 27.9 27.6 10.1 33 10.0 W 2 6 1 3 1013.5 - 0.0
18/04:00pm 27.9 27.5 11.0 35 9.6 SW 4 7 2 4 1013.3 1013.1 0.0
18/03:30pm 27.9 26.5 9.7 32 10.2 WSW 7 13 4 7 1013.1 - 0.0
18/03:00pm 27.8 26.0 8.1 29 10.7 W 7 13 4 7 1013.1 1012.9 0.0
18/02:30pm 27.8 26.7 10.1 33 9.9 SW 6 11 3 6 1013.4 - 0.0
18/02:00pm 27.5 27.0 10.7 35 9.5 ENE 4 11 2 6 1013.5 1013.3 0.0
18/01:30pm 26.7 26.1 11.6 39 8.6 SE 6 7 3 4 1013.8 - 0.0
18/01:00pm 27.2 27.2 12.4 40 8.6 E 4 9 2 5 1014.2 1014.0 0.0
18/12:30pm 27.3 28.2 14.0 44 7.9 N 2 6 1 3 1014.6 - 0.0
18/12:00pm 25.8 26.1 14.6 50 6.7 ESE 6 11 3 6 1015.1 1014.9 0.0
18/11:30am 25.3 26.1 15.9 56 5.7 SE 6 9 3 5 1015.6 - 0.0
18/11:00am 24.2 26.3 17.2 65 4.3 SSE 2 6 1 3 1016.3 1016.1 0.0
18/10:30am 23.7 25.6 17.7 69 3.7 E 4 7 2 4 1016.8 - 0.0
18/10:00am 22.4 24.5 17.1 72 3.3 S 2 6 1 3 1017.2 1017.0 0.0
18/09:30am 20.9 23.3 17.1 79 2.3 CALM 0 0 0 0 1017.5 - 0.0
18/09:00am 19.5 22.1 17.6 89 1.2 CALM 0 4 0 2 1017.5 1017.3 0.0
18/08:30am 16.8 18.5 16.3 97 0.3 ESE 2 4 1 2 1017.5 - 0.0
18/08:00am 16.3 17.9 16.0 98 0.2 SSE 2 4 1 2 1017.4 1017.2 0.0
18/07:30am 15.5 17.2 15.2 98 0.2 CALM 0 0 0 0 1017.3 - 0.0
18/07:00am 15.3 16.9 15.0 98 0.2 CALM 0 0 0 0 1017.0 1016.8 0.0
18/06:30am 15.2 16.8 14.9 98 0.2 CALM 0 0 0 0 1017.0 - 0.0
18/06:00am 14.9 16.4 14.6 98 0.2 CALM 0 0 0 0 1016.9 1016.7 0.0
18/05:30am 14.3 15.5 13.8 97 0.3 CALM 0 0 0 0 1016.7 - 0.0
18/05:00am 14.9 16.3 14.4 97 0.3 CALM 0 0 0 0 1016.6 1016.4 0.0
18/04:30am 15.1 16.6 14.6 97 0.3 CALM 0 0 0 0 1016.6 - 0.0
18/04:00am 15.1 16.6 14.6 97 0.3 CALM 0 0 0 0 1016.5 1016.3 0.0
18/03:30am 15.2 16.7 14.7 97 0.3 CALM 0 0 0 0 1016.4 - 0.0
18/03:00am 15.1 16.5 14.5 96 0.3 CALM 0 0 0 0 1016.5 1016.3 0.0
18/02:30am 15.7 17.4 15.1 96 0.3 CALM 0 0 0 0 1016.6 - 0.0
18/02:00am 15.9 17.6 15.3 96 0.3 CALM 0 0 0 0 1016.7 1016.5 0.0
18/01:30am 16.2 18.0 15.4 95 0.5 CALM 0 0 0 0 1016.9 - 0.0
18/01:00am 16.7 18.6 15.7 94 0.6 CALM 0 0 0 0 1017.4 1017.2 0.0
18/12:30am 16.8 18.7 15.8 94 0.6 CALM 0 0 0 0 1017.4 - 0.0
18/12:00am 17.0 19.0 16.0 94 0.6 CALM 0 0 0 0 1017.8 1017.6 0.0
 
Date/Time
EST
Tmp

°C
App
Tmp
°C
Dew
Point
°C
Rel
Hum
%
Delta-T

°C
Wind Press
QNH
hPa
Press
MSL
hPa
Rain
since
9 am
mm
Dir
 
Spd
km/h
Gust
km/h
Spd
kts
Gust
kts
17/11:30pm 17.1 19.1 16.1 94 0.6 CALM 0 0 0 0 1017.8 - 0.0
17/11:00pm 17.2 19.3 16.2 94 0.6 CALM 0 0 0 0 1017.9 1017.7 0.0
17/10:30pm 16.9 18.7 15.6 92 0.8 CALM 0 0 0 0 1017.9 - 0.0
17/10:00pm 17.7 19.7 16.0 90 1.0 CALM 0 0 0 0 1017.9 1017.7 0.0
17/09:30pm 17.7 19.7 15.9 89 1.1 CALM 0 0 0 0 1017.8 - 0.0
17/09:00pm 18.3 20.0 16.3 88 1.2 N 2 4 1 2 1017.9 1017.7 0.0
17/08:30pm 18.4 20.3 15.8 85 1.5 CALM 0 0 0 0 1017.6 - 0.0
17/08:00pm 19.0 21.0 16.0 83 1.8 CALM 0 0 0 0 1017.4 1017.2 0.0
17/07:30pm 20.1 22.1 15.9 77 2.5 CALM 0 0 0 0 1017.0 - 0.0
17/07:00pm 20.8 22.0 15.8 73 3.0 SE 4 6 2 3 1016.6 1016.4 0.0
17/06:30pm 21.7 22.9 15.8 69 3.5 E 4 7 2 4 1016.0 - 0.0
17/06:00pm 22.2 23.4 15.8 67 3.9 NE 4 7 2 4 1015.8 1015.6 0.0
17/05:30pm 22.6 23.2 15.7 65 4.2 E 7 15 4 8 1015.7 - 0.0
17/05:00pm 23.5 23.8 16.1 63 4.5 E 9 15 5 8 1015.2 1015.0 0.0
17/04:30pm 24.6 24.7 15.5 57 5.5 E 9 15 5 8 1014.8 - 0.0
17/04:00pm 25.9 26.0 15.6 53 6.3 E 9 17 5 9 1014.5 1014.3 0.0
17/03:30pm 27.5 28.8 15.2 47 7.5 NE 2 6 1 3 1014.5 - 0.0
17/03:00pm 25.9 26.7 14.7 50 6.7 N 4 6 2 3 1014.4 1014.2 0.0
17/02:30pm 25.8 26.3 14.0 48 7.0 N 4 4 2 2 1014.5 - 0.0
17/02:00pm 26.4 26.7 15.1 49 6.8 N 7 13 4 7 1014.7 1014.5 0.0
17/01:30pm 26.4 26.1 14.5 48 7.1 N 9 13 5 7 1014.9 - 0.0
17/01:00pm 25.5 26.2 16.1 56 5.8 N 7 13 4 7 1015.3 1015.1 0.0
17/12:30pm 25.9 26.7 15.9 54 6.1 N 6 9 3 5 1015.8 - 0.0
17/12:00pm 26.1 26.9 15.8 53 6.3 SSE 6 7 3 4 1016.3 1016.1 0.0
17/11:30am 25.4 26.1 15.7 55 5.9 WNW 6 13 3 7 1017.1 - 0.0
17/11:00am 24.9 25.8 15.2 54 5.8 N 4 9 2 5 1017.6 1017.4 0.0
17/10:30am 24.4 25.8 15.3 57 5.5 W 2 7 1 4 1018.1 - 0.0
17/10:00am 23.7 25.8 17.2 67 4.0 SW 2 4 1 2 1018.3 1018.1 0.0
17/09:30am 22.2 23.8 16.0 68 3.7 SSW 2 4 1 2 1018.5 - 0.0
17/09:00am 20.7 23.1 16.9 79 2.3 CALM 0 0 0 0 1018.6 1018.4 0.0
17/08:30am 19.9 22.3 16.9 83 1.8 CALM 0 0 0 0 1018.6 - 0.0
17/08:00am 18.4 20.4 16.0 86 1.4 CALM 0 0 0 0 1018.4 1018.2 0.0
17/07:30am 17.2 19.2 16.1 93 0.7 CALM 0 0 0 0 1018.2 - 0.0
17/07:00am 15.7 17.4 15.2 97 0.3 CALM 0 0 0 0 1018.0 1017.8 0.0
17/06:30am 15.5 17.1 15.0 97 0.3 CALM 0 0 0 0 1017.7 - 0.0
17/06:00am 15.4 17.0 14.9 97 0.3 CALM 0 0 0 0 1017.5 1017.3 0.0
17/05:30am 15.6 17.3 15.1 97 0.3 CALM 0 0 0 0 1017.2 - 0.0
17/05:00am 15.6 17.3 15.1 97 0.3 CALM 0 0 0 0 1017.1 1016.9 0.0
17/04:30am 15.3 16.9 14.8 97 0.3 CALM 0 0 0 0 1016.9 - 0.0
17/04:00am 14.8 16.2 14.3 97 0.3 CALM 0 0 0 0 1016.7 1016.5 0.0
17/03:30am 15.0 16.4 14.5 97 0.3 CALM 0 0 0 0 1016.5 - 0.0
17/03:00am 15.1 16.5 14.5 96 0.3 CALM 0 0 0 0 1016.5 1016.3 0.0
17/02:30am 15.3 16.8 14.7 96 0.3 CALM 0 0 0 0 1016.4 - 0.0
17/02:00am 15.4 17.0 14.8 96 0.3 CALM 0 0 0 0 1016.5 1016.3 0.0
17/01:30am 15.5 17.1 14.9 96 0.3 CALM 0 0 0 0 1016.6 - 0.0
17/01:00am 15.7 17.3 14.9 95 0.5 CALM 0 0 0 0 1016.9 1016.7 0.0
17/12:30am 16.1 17.8 15.3 95 0.5 CALM 0 0 0 0 1016.9 - 0.0
17/12:00am 16.4 18.2 15.4 94 0.6 CALM 0 0 0 0 1016.9 1016.7 0.0
 
Date/Time
EST
Tmp

°C
App
Tmp
°C
Dew
Point
°C
Rel
Hum
%
Delta-T

°C
Wind Press
QNH
hPa
Press
MSL
hPa
Rain
since
9 am
mm
Dir
 
Spd
km/h
Gust
km/h
Spd
kts
Gust
kts
16/11:30pm 16.6 18.4 15.6 94 0.6 CALM 0 0 0 0 1016.9 - 0.0
16/11:00pm 16.7 18.6 15.7 94 0.6 CALM 0 0 0 0 1016.9 1016.7 0.0
16/10:30pm 16.9 18.8 15.8 93 0.6 CALM 0 0 0 0 1016.9 - 0.0
16/10:00pm 17.5 19.6 16.2 92 0.8 CALM 0 0 0 0 1017.1 1016.9 0.0
16/09:30pm 17.7 19.7 16.0 90 1.0 CALM 0 0 0 0 1017.0 - 0.0
16/09:00pm 18.1 20.1 15.9 87 1.3 CALM 0 0 0 0 1016.8 1016.6 0.0
16/08:30pm 18.7 20.7 16.1 85 1.6 CALM 0 0 0 0 1016.5 - 0.0
16/08:00pm 19.3 21.4 16.2 82 1.9 CALM 0 0 0 0 1016.2 1016.0 0.0
16/07:30pm 20.3 22.3 15.9 76 2.6 CALM 0 0 0 0 1015.7 - 0.0
16/07:00pm 20.8 22.0 15.8 73 3.0 ESE 4 7 2 4 1015.4 1015.2 0.0
16/06:30pm 21.3 23.1 15.6 70 3.4 CALM 0 2 0 1 1014.8 - 0.0
16/06:00pm 21.8 23.0 15.9 69 3.6 ESE 4 7 2 4 1014.7 1014.5 0.0

Latest Capital City Observations: Canberra | Sydney | Melbourne | Brisbane | Adelaide | Perth | Hobart | Darwin

Other Formats:

Comma delimited format used in spreadsheet applications
http://www.bom.gov.au/fwo/IDQ60901/IDQ60901.94566.axf

JavaScript Object Notation format (JSON) in row-major order
http://www.bom.gov.au/fwo/IDQ60901/IDQ60901.94566.json